#timestamp,LO_Frequency,Hit 
1500372015.6,286045861.8,N
1500372035.5,286045863.2,N
1500372055.3,286045863.1,N
1500372075.1,286045861.3,N
1500372095.9,286045861.0,N
1500372115.7,286045858.9,N
1500372135.5,286045861.9,N
1500372155.4,286045863.6,N
1500372175.2,286045863.5,N
1500372195.1,286045863.4,N
1500372196.0,286045863.4,N
1500372215.8,286045863.5,N
1500372235.6,286045862.3,N
1500372255.5,286045863.2,N
1500372275.3,286045860.6,N
1500372295.1,286045860.9,N
1500372315.9,286045862.8,N
1500372335.7,286045863.4,N
1500372355.6,286045863.4,N
1500372375.4,286045863.5,N
1500372395.2,286045862.2,N
1500372415.1,286045863.0,N
1500372416.0,286045863.0,N
1500372435.8,286045864.7,N
1500372455.7,286045862.8,N
1500372475.5,286045862.6,N
1500372495.3,286045864.7,N
1500372515.2,286045864.9,N
1500372535.0,286045862.2,N
1500372535.9,286045862.2,N
1500372555.7,286045862.4,N
1500372575.6,286045862.8,N
1500372595.4,286045863.3,N
1500372615.3,286045863.2,N
1500372635.1,286045860.6,N
1500372636.0,286045860.6,N
1500372655.8,286045861.5,N
1500372675.7,286045861.4,N
1500372695.5,286045861.4,N
1500372715.4,286045861.4,N
1500372735.2,286045859.0,N
1500372755.0,286045859.8,N
1500372755.9,286045859.8,N
1500372775.8,286045859.1,N
1500372795.6,286045859.0,N
1500372815.4,286045859.7,N
1500372835.3,286045859.8,N
1500372855.1,286045859.8,N
1500372875.9,286045859.6,N
1500372895.7,286045859.9,N
1500372915.5,286045859.6,N
1500372935.4,286045859.7,N
1500372955.2,286045860.2,N
1500372975.0,286045860.2,N
1500372975.9,286045860.2,N
1500372995.8,286045859.4,N
1500373015.6,286045859.2,N
1500373035.5,286045861.8,N
1500373055.3,286045859.6,N
1500373075.1,286045859.0,N
1500373095.9,286045859.2,N
1500373115.7,286045857.8,N
1500373135.6,286045857.7,N
1500373155.4,286045858.2,N
1500373175.2,286045855.7,N
1500373195.1,286045858.2,N
1500373196.0,286045858.2,N
1500373215.8,286045858.6,N
1500373235.6,286045855.8,N
1500373255.5,286045858.6,N
1500373275.3,286045856.2,N
1500373295.2,286045855.8,N
1500373315.9,286045856.5,N
1500373335.7,286045856.3,N
1500373355.6,286045857.1,N
1500373375.4,286045856.4,N
1500373395.2,286045854.1,N
1500373415.1,286045854.1,N
1500373416.0,286045854.1,N
1500373435.8,286045855.9,N
1500373455.7,286045858.8,N
1500373475.5,286045855.9,N
1500373495.3,286045857.0,N
1500373515.2,286045856.9,N
1500373535.0,286045856.6,N
1500373535.9,286045856.6,N
1500373555.8,286045854.5,N
1500373575.6,286045854.1,N
1500373595.4,286045854.8,N
1500373615.3,286045855.4,N
1500373635.1,286045852.9,N
1500373655.8,286045852.9,N
1500373675.7,286045854.8,N
1500373695.5,286045854.6,N
1500373715.4,286045855.0,N
1500373735.2,286045855.2,N
1500373755.0,286045853.0,N
1500373755.9,286045853.0,N
1500373775.8,286045855.1,N
1500373795.6,286045854.2,N
1500373815.5,286045855.3,N
1500373835.3,286045854.9,N
1500373855.1,286045854.9,N
1500373875.9,286045854.8,N
1500373895.7,286045855.2,N
1500373915.6,286045855.5,N
1500373935.4,286045855.4,N
1500373955.2,286045855.6,N
1500373975.1,286045852.8,N
1500373976.0,286045852.8,N
1500373995.8,286045855.2,N
1500374015.6,286045855.4,N
1500374035.5,286045855.1,N
1500374055.3,286045855.3,N
1500374075.2,286045854.8,N
1500374095.9,286045854.5,N
1500374115.7,286045854.4,N
1500374135.6,286045854.3,N
1500374155.4,286045854.6,N
1500374175.2,286045854.5,N
1500374195.1,286045854.5,N
1500374196.0,286045854.5,N
1500374215.8,286045855.3,N
1500374235.7,286045855.5,N
1500374255.5,286045855.6,N
1500374275.3,286045855.0,N
1500374295.2,286045855.3,N
1500374315.0,286045855.2,N
1500374315.9,286045855.2,N
1500374335.8,286045855.3,N
1500374355.6,286045852.6,N
1500374375.4,286045853.8,N
1500374395.3,286045852.8,N
1500374415.1,286045852.8,N
1500374435.8,286045854.0,N
1500374455.7,286045850.9,N
1500374475.5,286045851.6,N
1500374495.4,286045851.8,N
1500374515.2,286045852.1,N
1500374535.1,286045850.0,N
1500374536.0,286045850.0,N
1500374555.8,286045849.6,N
1500374575.6,286045849.3,N
1500374595.5,286045850.2,N
1500374615.3,286045850.2,N
1500374635.1,286045850.2,N
1500374655.9,286045850.1,N
1500374675.7,286045850.8,N
1500374695.6,286045850.7,N
1500374715.4,286045848.1,N
1500374735.2,286045850.8,N
1500374755.1,286045850.0,N
1500374756.0,286045850.0,N
1500374775.8,286045849.3,N
1500374795.7,286045849.5,N
1500374815.5,286045850.2,N
1500374835.3,286045847.7,N
1500374855.2,286045850.4,N
1500374875.0,286045849.9,N
1500374875.9,286045849.9,N
1500374895.8,286045849.8,N
1500374915.6,286045849.6,N
1500374935.5,286045849.4,N
1500374955.3,286045849.4,N
1500374975.1,286045852.0,N
1500374995.9,286045852.2,N
1500375015.7,286045849.7,N
1500375035.6,286045849.7,N
1500375055.4,286045851.9,N
1500375075.2,286045851.5,N
1500375095.1,286045851.2,N
1500375096.0,286045851.2,N
1500375115.8,286045851.7,N
1500375135.7,286045852.1,N
1500375155.5,286045851.7,N
1500375175.3,286045851.6,N
1500375195.2,286045850.9,N
1500375215.0,286045853.5,N
1500375215.9,286045853.5,N
1500375235.8,286045853.5,N
1500375255.6,286045853.2,N
1500375275.4,286045853.4,N
1500375295.3,286045853.7,N
1500375315.1,286045853.7,N
1500375335.8,286045854.0,N
1500375355.7,286045851.5,N
1500375375.5,286045851.1,N
1500375395.4,286045851.4,N
1500375415.2,286045851.2,N
1500375435.0,286045851.6,N
1500375435.9,286045851.6,N
1500375455.8,286045851.5,N
1500375475.6,286045851.6,N
1500375495.5,286045851.7,N
1500375515.3,286045852.2,N
1500375535.1,286045852.0,N
1500375555.9,286045851.0,N
1500375575.7,286045851.4,N
1500375595.5,286045851.6,N
